Date,TemperatureHighF,TemperatureAvgF,TemperatureLowF,DewpointHighF,DewpointAvgF,DewpointLowF,HumidityHigh,HumidityAvg,HumidityLow,PressureMaxIn,PressureMinIn,WindSpeedMaxMPH,WindSpeedAvgMPH,GustSpeedMaxMPH,PrecipitationSumIn
2013-1-1,14.0,2.5,-6.2,4.1,-7.7,-17.4,68,61,55,30.06,29.89,4,1,0,0.00
2013-1-2,28.6,15.5,-2.2,16.9,-15.5,-62.0,66,39,1,29.90,29.77,7,1,0,0.00
2013-1-3,28.6,17.1,5.0,8.7,-15.9,-75.1,66,37,2,30.12,29.90,7,2,0,0.00
2013-1-4,33.6,19.4,5.0,22.7,-28.2,-74.5,65,26,1,30.04,29.90,6,2,0,0.01
2013-1-5,39.4,25.0,11.5,20.6,-23.8,-71.0,53,22,5,29.90,29.67,9,3,0,0.11
2013-1-6,26.6,18.2,10.4,16.4,-4.5,-69.8,66,43,2,30.04,29.82,9,2,0,0.00
2013-1-7,43.3,30.2,16.9,31.6,-3.5,-67.6,65,39,3,29.94,29.74,11,3,0,0.00
2013-1-8,43.0,30.1,15.1,29.7,-24.9,-68.7,59,20,5,29.81,29.59,9,2,0,0.00
2013-1-9,42.8,32.6,24.4,30.3,-33.1,-62.8,62,16,1,30.19,29.83,5,1,0,0.00
2013-1-10,41.2,33.6,24.1,30.0,-35.6,-63.0,65,16,1,30.15,29.46,12,3,0,0.05
2013-1-11,50.0,41.7,34.2,-46.9,-52.1,-56.7,1,1,1,29.47,29.19,10,5,0,0.01
2013-1-12,49.5,24.0,14.7,16.3,1.5,-58.9,66,53,1,29.83,29.25,8,4,0,0.00
2013-1-13,17.8,12.4,8.8,8.1,2.1,-4.7,67,63,52,30.07,29.78,7,1,0,0.00
2013-1-14,30.0,15.1,3.7,15.9,-0.6,-18.0,66,50,27,30.23,30.06,4,0,0,0.00
2013-1-15,33.8,21.1,9.3,19.6,-8.5,-72.1,65,41,3,30.14,29.80,8,2,0,0.00
2013-1-16,46.6,32.1,18.3,33.5,4.1,-58.8,64,45,1,29.96,29.60,10,2,0,0.00
2013-1-17,34.0,23.0,13.3,21.2,-10.7,-66.3,66,37,4,30.22,29.96,7,1,0,0.00
2013-1-18,53.2,38.4,22.5,38.2,3.4,-64.0,62,34,1,30.08,29.60,11,3,0,0.00
2013-1-19,51.1,38.1,15.8,37.6,13.6,-56.0,66,45,3,30.02,29.56,12,3,0,0.00
2013-1-20,17.2,11.0,2.1,6.7,-1.1,-13.9,65,58,41,30.16,30.01,12,3,0,0.00
2013-1-21,5.0,0.8,-5.3,-5.0,-9.3,-14.6,65,62,44,30.19,30.07,10,2,0,0.00
2013-1-22,16.3,7.5,-5.1,3.6,-2.8,-13.8,66,62,54,30.19,30.04,3,1,0,0.00
2013-1-23,27.0,16.0,3.4,16.8,6.1,-6.0,66,64,60,30.29,29.91,13,4,0,0.00
2013-1-24,19.4,9.9,1.2,7.8,-1.8,-9.1,64,58,50,30.37,29.95,10,5,0,0.00
2013-1-25,36.0,22.6,9.7,24.8,11.3,-6.7,67,62,38,30.06,29.83,11,4,0,0.00
2013-1-26,31.6,19.7,5.0,17.1,7.7,-5.1,67,59,51,30.11,29.91,11,4,0,0.00
2013-1-27,34.2,31.7,28.2,20.6,-38.6,-59.3,64,16,1,29.90,29.48,11,4,0,0.02
2013-1-28,45.0,36.1,31.5,-50.0,-55.5,-58.4,1,1,1,29.66,29.31,6,2,0,0.07
2013-1-29,51.1,37.9,32.7,-46.3,-54.4,-57.6,1,1,1,29.41,29.25,10,4,0,0.02
2013-1-30,32.4,23.1,12.6,-16.6,-55.6,-68.1,23,3,1,29.59,29.23,17,7,0,0.01
2013-1-31,12.2,5.5,-2.6,1.6,-8.0,-23.5,66,55,22,30.11,29.60,12,5,0,0.00
2013-2-1,21.9,4.2,-10.5,2.4,-6.9,-19.9,67,60,33,30.14,29.77,9,4,0,0.00
2013-2-2,29.3,20.0,14.0,9.6,-12.7,-66.4,61,37,23,29.93,29.71,9,3,0,0.00
2013-2-3,31.8,25.0,13.6,18.1,1.0,-63.7,60,46,9,29.91,29.54,10,4,0,0.00
2013-2-4,26.6,21.5,11.1,13.8,-22.6,-71.2,59,27,1,29.77,29.50,12,3,0,0.00
2013-2-5,43.0,29.7,17.8,26.1,-31.2,-67.0,53,17,2,29.85,29.52,10,2,0,0.06
2013-2-6,41.4,31.5,19.4,13.4,-42.2,-66.0,32,6,2,29.88,29.66,10,3,0,0.00
2013-2-7,36.7,32.1,27.7,-55.1,-58.0,-60.8,0,0,100,29.94,29.63,10,4,0,0.14
2013-2-8,31.5,27.5,24.6,14.2,-42.7,-62.7,49,9,3,30.12,29.94,16,4,0,0.00
2013-2-9,34.2,30.3,26.8,-56.7,-59.1,-61.3,0,0,100,30.02,29.59,14,7,0,0.01
2013-2-10,46.0,36.5,31.3,24.2,-44.5,-58.1,48,6,1,29.59,29.00,14,7,0,0.22
2013-2-11,31.5,29.4,26.6,17.4,12.6,2.7,58,49,35,29.87,29.30,12,4,0,0.00
2013-2-12,46.2,32.3,20.7,29.0,-1.5,-65.2,58,36,7,29.89,29.60,5,1,0,0.00
2013-2-13,49.1,36.0,23.7,33.6,-8.1,-63.3,57,32,3,29.61,29.40,4,1,0,0.00
2013-2-14,41.5,34.4,23.2,27.3,-2.2,-58.2,59,32,1,29.92,29.43,11,4,0,0.00
2013-2-15,28.8,21.5,14.9,13.2,7.7,0.3,59,55,48,30.07,29.92,8,2,0,0.00
2013-2-16,34.3,21.8,9.5,17.1,-1.8,-69.7,55,39,7,30.05,29.84,4,0,0,0.00
2013-2-17,43.5,30.5,17.6,24.5,3.1,-67.1,54,37,1,29.85,29.38,14,6,0,0.00
2013-2-18,44.4,29.7,14.9,27.9,-3.2,-61.6,54,36,1,29.65,29.29,14,3,0,0.00
2013-2-19,21.9,13.7,3.2,1.3,-4.2,-17.1,54,44,35,30.12,29.66,11,4,0,0.00
2013-2-20,25.5,13.2,-0.4,-6.8,-17.6,-25.0,37,24,12,30.20,30.04,6,1,0,0.00
2013-2-21,26.6,21.1,15.8,-1.3,-28.1,-64.0,30,16,1,30.08,29.58,9,3,0,0.00
2013-2-22,35.6,25.9,22.1,5.3,-36.0,-64.3,29,11,1,29.72,29.51,5,1,0,0.23
2013-2-23,32.4,21.4,10.9,3.0,-31.1,-71.4,29,14,2,29.72,29.63,2,0,0,0.04
2013-2-24,40.3,25.4,9.5,10.6,-36.0,-72.3,30,12,5,29.82,29.69,4,0,0,0.01
2013-2-25,41.2,33.2,27.3,12.1,-34.9,-61.0,30,10,7,29.84,29.65,4,1,0,0.00
2013-2-26,32.9,30.7,28.6,-41.1,-58.5,-60.2,3,0,2,29.65,29.44,15,6,0,0.00
2013-2-27,34.7,29.0,23.4,-56.4,-59.9,-63.5,1,0,1,29.71,29.52,10,2,0,0.02
2013-2-28,34.5,27.6,21.4,5.6,-37.3,-64.7,29,10,3,29.90,29.72,7,2,0,0.02
2013-3-1,31.5,26.5,24.1,2.9,-27.2,-63.0,30,16,1,30.06,29.89,7,2,0,0.00
2013-3-2,32.2,21.6,10.0,1.4,-27.5,-71.9,30,16,3,30.08,29.92,5,1,0,0.02
2013-3-3,35.2,27.8,21.6,5.1,-16.7,-64.5,30,19,1,29.92,29.67,9,2,0,0.00
2013-3-4,37.2,31.4,26.1,-1.2,-48.9,-61.8,19,3,4,29.70,29.54,10,4,0,0.03
2013-3-5,36.7,29.9,25.3,7.5,-39.6,-62.3,30,8,2,30.03,29.68,9,3,0,0.13
2013-3-6,30.2,23.0,9.7,2.5,-37.0,-72.1,30,12,1,30.17,30.03,10,2,0,0.00
2013-3-7,33.6,20.5,4.8,5.3,-43.4,-75.3,30,9,5,30.13,30.01,8,1,0,0.00
2013-3-8,42.8,33.6,23.5,12.2,-30.8,-63.4,29,10,4,30.04,29.78,11,4,0,0.08
2013-3-9,38.8,36.9,35.1,-53.8,-55.0,-56.1,0,0,100,29.78,29.38,14,4,0,0.78
2013-3-10,37.8,34.6,32.0,-54.5,-56.4,-58.1,0,0,100,29.53,29.38,12,6,0,0.42
2013-3-11,32.0,28.2,22.8,-13.7,-58.0,-63.8,14,1,3,29.68,29.44,10,4,0,0.01
2013-3-12,37.4,26.1,16.7,-3.8,-51.1,-67.7,23,4,1,29.98,29.68,7,3,0,0.02
2013-3-13,32.5,23.8,15.3,1.5,-32.5,-68.6,26,13,3,30.19,29.99,6,2,0,0.06
2013-3-14,48.9,35.3,21.4,15.5,-33.5,-64.7,26,9,1,30.06,29.80,9,3,0,0.00
2013-3-15,51.4,36.8,26.4,-46.1,-55.1,-61.6,1,1,1,29.80,29.47,5,1,0,0.00
2013-3-16,35.4,31.7,25.9,-0.6,-35.4,-59.5,22,8,1,29.95,29.53,15,5,0,0.00
2013-3-17,39.7,30.2,20.5,8.4,-26.3,-65.3,27,13,1,29.94,29.59,10,5,0,0.00
2013-3-18,38.8,28.8,19.4,2.4,-30.7,-58.9,26,12,3,29.73,29.45,12,5,0,0.03
2013-3-19,35.1,24.4,13.6,0.0,-9.8,-27.0,26,21,8,30.00,29.70,12,3,0,0.04
2013-3-20,28.6,20.8,12.9,-9.1,-14.3,-23.6,26,20,10,30.07,29.88,12,5,0,0.00
2013-3-21,33.6,21.7,9.0,-3.7,-16.7,-68.7,26,18,2,29.89,29.73,7,2,0,0.00
2013-3-22,41.0,28.7,16.3,4.5,-25.4,-67.9,26,13,10,29.83,29.74,6,2,0,0.00
2013-3-23,39.6,31.7,23.9,4.1,-19.8,-63.1,26,14,2,29.88,29.75,10,4,0,0.00
2013-3-24,31.8,29.6,27.7,-4.6,-56.8,-60.8,20,1,8,29.78,29.63,14,6,0,0.00
2013-3-25,37.4,30.9,27.3,3.9,-29.1,-61.0,25,11,1,29.99,29.70,16,6,0,0.05
2013-3-26,44.4,31.5,22.1,7.2,-27.8,-64.3,25,12,12,30.08,30.00,8,3,0,0.00
2013-3-27,46.6,34.3,20.3,8.2,-29.5,-65.4,24,9,4,30.09,30.00,6,1,0,0.00
2013-3-28,56.3,40.7,26.6,17.5,-23.8,-61.4,26,10,1,30.07,29.97,8,2,0,0.00
2013-3-29,62.1,45.4,27.5,20.2,-15.0,-60.9,25,12,14,30.02,29.84,10,3,0,0.00
2013-3-30,54.7,45.6,36.7,4.5,-42.6,-55.1,19,2,3,29.84,29.61,8,2,0,0.36
2013-3-31,53.2,40.0,31.6,13.2,-23.2,-57.8,22,11,8,29.84,29.63,10,3,0,0.01
2013-4-1,39.6,30.0,22.1,-3.3,-23.6,-64.3,23,12,1,30.04,29.84,10,4,0,0.00
2013-4-2,46.2,32.1,17.2,4.1,-32.3,-67.4,22,8,1,30.10,30.03,9,2,0,0.00
2013-4-3,49.6,34.7,22.6,0.7,-34.2,-64.0,23,6,2,30.16,29.99,9,2,0,0.00
2013-4-4,64.0,45.3,25.5,20.1,-2.4,-62.1,23,16,7,29.99,29.78,6,2,0,0.00
2013-4-5,58.8,46.6,28.0,10.5,-21.0,-60.6,23,8,3,29.95,29.58,12,5,0,0.00
2013-4-6,67.8,55.1,43.5,31.7,7.0,-50.9,26,19,2,29.58,29.28,12,6,0,0.00
2013-4-7,65.3,48.0,33.4,24.0,-22.8,-57.2,22,8,5,29.69,29.41,7,3,0,0.00
2013-4-8,75.0,61.1,43.3,36.2,-15.1,-51.1,27,9,1,29.54,29.35,10,2,0,0.03
2013-4-9,56.8,49.3,42.3,-42.8,-47.4,-51.7,0,0,100,29.62,29.45,14,6,0,0.92
2013-4-10,42.3,39.3,37.4,-51.7,-53.5,-54.7,0,0,100,29.71,29.44,14,5,0,0.79
2013-4-11,45.9,39.5,36.5,-49.5,-53.4,-55.3,0,0,100,29.47,29.32,6,3,0,0.34
2013-4-12,41.0,36.5,33.3,-52.5,-55.3,-57.3,0,0,100,29.68,29.33,10,4,0,0.00
2013-4-13,53.4,42.6,29.3,8.4,-29.9,-59.8,16,6,1,29.74,29.59,6,3,0,0.46
2013-4-14,66.6,50.8,40.1,-36.9,-46.5,-53.0,0,0,100,29.59,29.15,11,5,0,0.51
2013-4-15,49.1,41.6,37.2,1.1,-46.2,-54.8,16,2,1,29.81,29.38,7,2,0,0.00
2013-4-16,51.6,41.0,27.9,8.2,-33.5,-60.6,17,5,3,30.00,29.81,12,4,0,0.00
2013-4-17,45.5,42.4,39.6,-49.7,-51.6,-53.3,0,0,100,29.95,29.29,12,4,0,2.15
2013-4-18,42.6,38.2,34.0,-51.5,-54.2,-56.8,0,0,100,29.48,29.27,11,6,0,0.55
2013-4-19,42.4,35.7,30.2,-12.4,-46.4,-59.2,10,2,2,29.81,29.40,11,6,0,0.00
2013-4-20,48.9,38.2,23.7,-3.5,-36.3,-63.3,13,4,1,30.03,29.82,7,2,0,0.00
2013-4-21,67.5,52.4,39.7,14.9,-27.3,-53.3,13,4,1,30.01,29.80,18,8,0,0.01
2013-4-22,68.2,52.7,37.2,14.2,-40.8,-54.8,13,2,1,29.92,29.64,9,4,0,0.41
2013-4-23,42.3,36.2,31.6,-13.1,-52.1,-58.3,9,1,1,29.89,29.79,18,7,0,0.01
2013-4-24,55.8,42.6,25.7,1.4,-39.1,-62.0,13,3,1,29.90,29.75,8,3,0,0.00
2013-4-25,61.7,47.8,30.6,3.8,-28.2,-58.9,13,4,1,30.02,29.87,9,3,0,0.00
2013-4-26,68.5,57.5,47.3,19.0,-22.7,-48.6,15,5,2,29.94,29.84,12,6,0,0.00
2013-4-27,69.6,55.6,39.9,19.9,-27.9,-53.2,15,4,1,29.96,29.73,10,3,0,0.00
2013-4-28,77.7,60.8,39.0,27.0,-16.8,-53.7,16,6,3,29.74,29.46,9,3,0,0.00
2013-4-29,82.0,67.3,51.4,37.0,-19.4,-46.1,20,5,2,29.52,29.25,7,3,0,0.00
2013-4-30,85.5,74.5,59.0,40.8,10.8,-41.2,21,12,2,29.61,29.25,14,6,0,0.00
2013-5-1,58.6,50.3,39.7,0.0,-44.7,-53.3,9,0,1,30.05,29.60,19,10,0,0.00
2013-5-2,40.6,34.6,32.7,-52.7,-56.5,-57.6,0,0,100,30.18,30.01,14,9,0,1.47
2013-5-3,35.1,33.5,32.2,-56.1,-57.1,-57.9,0,0,100,30.08,29.69,14,7,0,0.67
2013-5-4,52.0,42.0,33.8,-45.7,-51.9,-56.9,0,0,100,29.82,29.64,12,6,0,0.35
2013-5-5,63.0,51.2,42.1,-39.0,-46.2,-51.8,0,0,100,29.86,29.78,9,3,0,0.00
2013-5-6,75.6,59.2,44.4,20.4,-31.3,-50.4,13,2,1,29.84,29.73,7,2,0,0.00
2013-5-7,80.1,63.8,45.1,18.6,-21.5,-50.0,13,3,2,29.81,29.68,5,1,0,0.00
2013-5-8,77.4,61.2,46.8,22.7,-31.6,-48.9,13,2,5,29.74,29.66,8,1,0,0.16
2013-5-9,71.2,60.5,53.2,-34.1,-40.6,-45.0,0,0,100,29.67,29.56,10,3,0,1.02
2013-5-10,67.5,55.4,47.1,-11.1,-43.4,-48.7,4,0,1,29.78,29.65,11,4,0,0.00
2013-5-11,58.1,51.7,42.3,5.2,-32.0,-49.6,13,3,1,29.95,29.68,18,5,0,0.00
2013-5-12,62.2,49.2,32.2,2.0,-35.2,-57.9,13,3,1,30.00,29.86,9,2,0,0.00
2013-5-13,77.0,58.7,33.3,17.4,-18.7,-57.3,14,5,1,29.90,29.58,16,4,0,0.00
2013-5-14,97.5,79.1,57.2,46.8,8.2,-42.6,22,10,3,29.57,29.30,12,3,0,0.00
2013-5-15,83.3,71.1,55.8,20.2,-8.4,-43.4,14,6,2,29.63,29.45,10,2,0,0.00
2013-5-16,84.0,69.7,51.6,34.5,-20.2,-46.0,17,4,1,29.64,29.52,11,2,0,0.00
2013-5-17,82.2,72.2,61.2,33.0,-18.9,-40.1,17,3,1,29.66,29.55,10,3,0,0.00
2013-5-18,85.3,73.1,57.9,37.6,-12.3,-42.1,19,6,4,29.68,29.50,12,4,0,0.00
2013-5-19,89.6,73.9,61.2,41.9,-16.7,-40.1,21,4,2,29.53,29.27,15,6,0,1.47
2013-5-20,80.1,68.2,59.2,25.9,-27.4,-41.3,14,2,2,29.38,29.26,10,4,0,1.49
2013-5-21,72.5,64.4,57.6,23.8,-25.7,-42.3,16,3,1,29.39,29.27,0,0,0,0.00
2013-5-22,68.2,59.3,54.3,-35.9,-41.3,-44.3,0,0,100,29.61,29.37,0,0,0,0.00
2013-5-23,70.0,60.1,52.9,22.5,-21.1,-45.2,17,5,2,30.01,29.62,0,0,0,0.00
2013-5-24,71.8,61.2,46.4,24.6,-16.3,-49.2,18,7,1,30.11,29.92,0,0,0,0.00
2013-5-25,60.1,53.0,50.9,-40.8,-45.2,-46.4,0,0,100,30.03,29.88,0,0,0,2.61
2013-5-26,57.6,54.1,49.6,-42.3,-44.4,-47.2,0,0,100,29.91,29.64,0,0,0,0.85
2013-5-27,74.3,64.8,56.8,-32.2,-38.0,-42.8,0,0,100,29.74,29.38,0,0,0,1.11
2013-5-28,81.9,70.9,63.0,34.7,-27.8,-39.0,19,2,1,29.48,29.33,0,0,0,0.36
2013-5-29,81.5,69.1,63.3,-27.9,-35.4,-38.9,1,1,1,29.52,29.39,0,0,0,2.15
2013-5-30,72.0,68.9,62.8,-33.6,-35.5,-39.2,1,1,1,29.41,29.28,0,0,0,0.03
2013-5-31,77.5,69.8,62.1,-30.3,-34.9,-39.6,1,1,1,29.42,29.36,0,0,0,0.00
2013-6-1,71.6,63.9,56.8,27.2,-34.3,-42.8,19,1,12,29.46,29.34,0,0,0,0.00
2013-6-2,66.6,56.7,49.8,50.4,44.4,-99.9,93,66,46,29.81,29.65,9,-7,0,0.00
2013-6-3,72.7,61.2,43.7,52.8,48.1,43.2,99,66,42,29.83,29.67,10,3,0,0.00
2013-6-4,65.7,60.1,55.2,60.1,55.0,49.7,96,83,74,29.82,29.68,16,5,0,0.13
2013-6-5,69.4,62.4,56.7,61.9,58.9,53.2,99,89,68,29.74,29.64,7,2,0,0.38
2013-6-6,68.2,59.0,51.1,57.9,53.9,50.8,99,85,59,29.69,29.63,9,2,0,0.00
2013-6-8,68.0,64.3,62.8,62.1,59.8,57.2,93,85,74,29.60,29.50,9,3,0,0.12
2013-6-9,74.8,65.7,59.2,64.5,61.0,57.1,99,86,65,29.51,29.42,9,3,0,0.22
2013-6-10,80.1,66.1,56.7,65.2,61.2,56.4,99,86,57,29.62,29.48,4,1,0,0.00
2013-6-11,87.6,75.4,61.2,72.5,67.7,60.9,99,79,59,29.63,29.44,7,3,0,0.00
2013-6-12,91.8,77.2,64.9,74.9,69.4,58.7,97,78,52,29.57,29.38,14,4,0,0.06
2013-6-13,85.1,73.0,60.6,61.6,57.5,54.0,88,61,36,29.76,29.58,7,3,0,0.00
2013-6-14,73.9,67.1,61.3,66.5,61.2,56.3,97,82,65,29.79,29.57,10,3,0,0.12
2013-6-15,82.0,71.1,63.9,72.2,67.1,63.6,99,88,70,29.73,29.53,9,3,0,0.35
2013-6-16,89.6,75.2,64.8,70.2,59.8,49.1,99,65,26,29.69,29.63,4,1,0,0.00
2013-6-17,92.3,75.6,58.5,63.4,58.0,52.9,99,60,30,29.70,29.61,7,1,0,0.00
2013-6-18,85.1,73.0,59.5,63.1,58.1,53.7,88,61,45,29.74,29.66,6,1,0,0.00
2013-6-19,86.2,74.1,63.9,66.0,61.6,58.4,85,67,45,29.80,29.70,9,4,0,0.00
2013-6-20,88.3,78.5,66.6,68.0,64.8,60.8,83,64,47,29.75,29.63,13,6,0,0.00
2013-6-21,88.3,79.2,71.2,75.9,70.4,64.2,84,75,64,29.71,29.56,9,5,0,0.00
2013-6-22,93.9,81.4,69.6,75.4,70.6,63.7,90,71,52,29.74,29.55,11,4,0,0.01
2013-6-23,82.0,75.7,65.1,71.7,68.7,64.7,99,80,64,29.71,29.54,10,4,0,0.42
2013-6-24,75.4,70.6,65.7,73.3,68.7,65.4,99,94,79,29.69,29.54,8,3,0,0.93
2013-6-25,89.4,77.1,67.8,75.5,71.7,67.1,99,85,54,29.56,29.43,11,3,0,0.34
2013-6-26,92.5,80.5,71.6,78.7,71.4,64.5,98,76,43,29.57,29.37,10,2,0,0.00
2013-6-27,88.2,75.4,63.7,70.6,65.4,60.5,99,74,44,29.67,29.56,6,1,0,0.00
2013-6-28,85.5,76.7,66.2,63.0,58.4,53.1,88,56,34,29.60,29.48,11,4,0,0.00
2013-6-29,75.6,69.8,64.4,64.2,58.8,56.2,83,68,51,29.63,29.48,12,5,0,0.00
2013-6-30,77.7,68.2,57.7,56.8,52.9,47.7,91,61,37,29.81,29.63,10,4,0,0.00
2013-7-1,81.0,69.2,54.5,58.9,53.6,49.4,94,62,36,29.86,29.79,8,2,0,0.00
2013-7-2,84.4,69.7,55.2,59.6,56.2,51.7,98,67,36,29.87,29.72,6,2,0,0.00
2013-7-3,82.0,69.8,56.7,62.7,58.9,54.6,99,72,44,29.80,29.70,6,2,0,0.00
2013-7-4,86.9,74.2,60.3,62.8,60.0,57.8,95,64,41,29.76,29.66,9,4,0,0.00
2013-7-5,87.6,76.7,61.3,65.4,61.9,57.9,89,62,45,29.72,29.62,13,5,0,0.00
2013-7-6,92.1,77.9,66.0,68.0,64.2,60.7,84,65,41,29.69,29.58,10,4,0,0.00
2013-7-7,94.6,81.7,69.8,72.2,67.6,63.6,85,65,41,29.64,29.57,9,4,0,0.00
2013-7-8,90.7,81.8,75.4,75.2,71.8,68.5,93,73,55,29.70,29.61,7,2,0,0.02
2013-7-9,95.4,82.0,73.0,77.5,74.4,72.4,99,80,52,29.69,29.57,9,1,0,0.05
2013-7-10,85.6,75.3,63.7,73.7,60.9,53.8,90,64,36,29.78,29.63,9,3,0,0.00
2013-7-11,85.6,72.2,58.5,62.5,58.4,55.2,97,66,40,29.85,29.75,8,2,0,0.00
2013-7-12,86.5,73.6,62.2,64.0,60.6,57.0,87,65,45,29.81,29.72,13,5,0,0.00
2013-7-13,78.8,70.9,63.5,65.4,60.4,56.2,80,70,60,29.80,29.73,9,4,0,0.00
2013-7-14,88.3,76.6,63.0,66.6,63.6,60.0,90,66,46,29.91,29.80,8,3,0,0.00
2013-7-15,90.0,75.9,63.9,73.2,67.7,62.0,95,77,56,29.97,29.87,6,2,0,0.00
2013-7-16,94.5,83.0,72.1,73.7,71.9,70.0,95,71,48,29.99,29.92,8,3,0,0.00
2013-7-17,97.2,84.6,70.5,75.0,71.6,68.6,98,68,44,30.03,29.89,7,2,0,0.00
2013-7-18,97.7,86.5,71.6,73.3,69.9,66.9,95,62,38,29.91,29.66,7,2,0,0.00
2013-7-22,66.6,55.4,66.4,66.0,38.2,-99.9,98,82,97,29.54,29.52,2,-166,0,0.78
2013-7-23,77.4,68.7,60.6,66.3,60.8,57.4,99,78,55,29.73,29.52,9,2,0,0.00
2013-7-24,80.6,68.8,55.9,61.0,58.4,55.3,98,72,47,29.80,29.71,5,1,0,0.00
2013-7-25,88.3,74.2,57.9,67.1,63.1,57.6,99,71,44,29.79,29.65,7,2,0,0.00
2013-7-26,78.3,70.8,62.8,69.1,59.9,52.8,99,71,43,29.77,29.67,11,3,0,0.00
2013-7-27,75.0,62.5,52.2,54.2,48.3,43.9,94,62,37,29.82,29.71,8,3,0,0.00
2013-7-28,80.8,63.4,48.7,54.9,49.7,45.6,90,63,37,29.80,29.71,8,2,0,0.00
2013-7-29,75.0,65.2,47.7,62.4,55.9,47.4,99,74,53,29.86,29.79,8,2,0,0.00
2013-7-30,69.4,66.2,62.8,66.4,64.3,60.0,99,94,82,29.81,29.76,5,2,0,0.42
2013-7-31,84.4,72.4,62.4,68.6,65.0,62.1,99,80,52,29.84,29.73,5,1,0,0.00
2013-8-1,88.7,71.6,57.6,65.9,62.2,57.3,99,76,36,29.81,29.62,4,1,0,0.00
2013-8-2,86.7,71.0,63.3,66.9,63.1,59.1,99,78,51,29.74,29.61,6,2,0,0.00
2013-8-3,78.8,69.2,57.7,61.9,57.5,52.6,95,69,42,29.91,29.74,5,2,0,0.00
2013-8-4,82.2,69.4,53.6,60.0,57.2,53.0,98,69,42,29.93,29.78,8,2,0,0.00
2013-8-5,86.2,73.0,63.0,71.7,65.7,58.2,95,79,59,29.77,29.55,8,2,0,0.00
2013-8-6,92.8,76.7,61.5,72.9,67.3,61.2,99,75,45,29.62,29.50,8,2,0,0.00
2013-8-7,80.4,72.6,64.8,69.3,65.5,61.5,99,80,58,29.74,29.52,9,2,0,0.46
2013-8-8,80.6,69.6,57.4,63.9,60.3,55.0,93,74,50,29.76,29.70,6,1,0,0.00
2013-8-9,79.9,71.0,61.0,67.6,62.0,55.4,97,75,47,29.86,29.72,7,2,0,0.00
2013-8-10,84.6,70.8,54.5,64.5,59.2,53.9,99,71,42,29.93,29.81,6,1,0,0.00
2013-8-11,86.2,73.6,62.4,67.3,63.3,58.5,92,72,53,29.86,29.70,6,2,0,0.14
2013-8-12,82.6,71.4,59.9,68.0,62.6,55.4,99,77,44,29.78,29.71,8,2,0,0.03
2013-8-13,76.6,65.5,54.3,61.3,56.2,51.6,99,74,51,29.91,29.77,6,2,0,0.00
2013-8-14,79.0,64.3,48.4,56.0,51.3,45.9,97,67,32,29.97,29.84,5,1,0,0.00
2013-8-15,73.9,65.3,55.2,58.5,55.7,53.2,93,73,53,29.89,29.82,7,2,0,0.00
2013-8-16,79.7,65.1,49.5,59.0,54.4,49.0,98,72,43,29.94,29.87,5,1,0,0.00
2013-8-17,84.4,68.4,50.5,61.3,55.5,50.0,98,68,35,29.96,29.85,6,1,0,0.00
2013-8-18,85.3,69.4,53.2,61.5,57.5,52.3,98,69,40,29.91,29.79,7,2,0,0.00
2013-8-19,86.9,71.0,56.7,65.6,61.5,55.7,98,74,47,29.82,29.70,7,2,0,0.00
2013-8-20,91.4,76.1,67.1,70.3,65.5,61.4,86,71,48,29.74,29.64,10,3,0,0.00
2013-8-21,94.5,80.4,69.4,71.1,68.3,65.6,89,69,45,29.73,29.66,5,2,0,0.00
2013-8-22,87.1,75.5,67.5,70.3,68.2,65.4,94,79,56,29.82,29.70,6,1,0,0.00
2013-8-23,86.5,75.3,63.9,73.3,68.8,63.3,99,82,63,29.85,29.76,9,2,0,0.00
2013-8-24,90.1,78.5,68.5,73.8,70.4,67.0,95,77,54,29.88,29.77,12,4,0,0.00
2013-8-25,96.3,82.0,69.1,72.5,69.2,65.1,87,67,44,29.90,29.77,10,4,0,0.00
2013-8-26,99.5,84.7,71.4,73.8,70.1,68.0,91,65,39,29.84,29.67,6,2,0,0.00
2013-8-27,100.4,86.1,73.9,72.4,70.2,68.6,84,61,40,29.69,29.57,9,2,0,0.00
2013-8-28,99.0,84.3,69.3,72.5,69.4,66.2,91,64,38,29.72,29.63,4,1,0,0.00
2013-8-29,96.4,82.5,67.3,72.5,70.0,65.8,95,69,44,29.76,29.64,7,2,0,0.00
2013-8-30,102.4,85.9,69.3,79.3,72.6,67.6,95,68,38,29.64,29.49,6,2,0,0.00
2013-8-31,92.8,79.4,67.3,72.5,69.6,65.5,94,74,46,29.58,29.49,6,1,0,0.00
2013-9-1,84.2,74.6,63.3,70.0,63.4,57.1,97,71,44,29.69,29.44,16,3,0,0.06
2013-9-2,78.8,66.2,55.6,58.1,54.9,49.8,95,70,38,29.79,29.68,8,2,0,0.00
2013-9-3,83.5,65.3,46.0,59.6,53.7,45.5,98,70,38,29.86,29.72,5,1,0,0.00
2013-9-4,92.5,73.7,55.0,67.2,60.5,53.3,94,68,38,29.87,29.76,4,1,0,0.00
2013-9-5,91.6,77.5,64.2,69.3,65.7,62.1,93,70,43,29.93,29.84,5,1,0,0.00
2013-9-6,93.2,78.6,63.3,67.9,62.8,58.9,97,63,35,29.86,29.66,8,3,0,0.00
2013-9-7,95.9,81.0,70.5,72.8,67.5,60.2,88,65,44,29.68,29.57,5,2,0,0.00
2013-9-8,85.1,76.5,70.5,72.5,70.5,68.7,95,83,66,29.68,29.54,9,3,0,0.00
2013-9-9,101.7,84.9,69.8,71.2,66.6,62.1,97,60,29,29.58,29.49,12,2,0,0.00
2013-9-10,100.2,83.7,68.2,72.6,65.2,60.4,91,57,33,29.72,29.58,8,2,0,0.07
2013-9-11,86.4,75.3,66.9,70.4,67.9,65.4,98,80,52,29.82,29.71,5,1,0,0.54
2013-9-12,78.1,67.5,54.5,65.2,54.2,46.4,97,67,35,29.91,29.78,9,2,0,0.00
2013-9-13,73.0,60.1,47.3,51.1,47.9,45.5,96,67,40,29.99,29.83,6,1,0,0.00
2013-9-14,76.6,62.3,43.5,48.8,45.4,41.8,95,58,32,29.87,29.63,13,3,0,0.00
2013-9-15,71.8,64.9,55.9,62.5,54.8,47.4,88,70,52,29.97,29.59,8,4,0,0.00
2013-9-16,67.8,57.6,51.3,55.3,52.6,50.0,98,84,58,30.11,29.98,7,2,0,0.00
2013-9-17,63.9,56.8,52.2,63.6,55.7,50.4,99,96,86,30.00,29.73,9,4,0,0.46
2013-9-18,89.8,75.4,64.0,71.6,67.9,63.7,99,80,52,29.73,29.45,14,5,0,0.03
2013-9-19,86.7,74.0,64.8,72.9,68.4,63.7,99,84,56,29.59,29.43,14,3,0,0.98
2013-9-20,67.1,60.2,51.3,64.8,52.9,45.7,99,78,59,29.71,29.59,7,2,0,0.00
2013-9-21,72.0,56.2,42.3,51.3,46.1,41.8,99,73,38,29.77,29.63,5,1,0,0.00
2013-9-22,77.9,61.0,45.9,56.7,51.1,45.6,99,73,46,29.72,29.60,11,3,0,0.00
2013-9-23,76.3,62.8,51.3,55.9,51.4,48.9,92,69,44,29.71,29.56,12,5,0,0.00
2013-9-24,74.7,63.4,53.1,58.9,53.9,49.0,86,72,56,29.63,29.58,8,3,0,0.00
2013-9-25,79.0,64.5,50.9,59.7,54.9,49.8,96,73,49,29.69,29.56,8,2,0,0.00
2013-9-26,83.3,69.8,56.8,64.8,59.1,53.3,89,70,49,29.68,29.58,15,5,0,0.00
2013-9-27,85.8,73.4,63.0,65.0,61.9,60.0,91,70,45,29.71,29.59,14,6,0,0.00
2013-9-28,70.0,61.3,46.4,65.9,57.4,46.1,99,88,70,29.78,29.51,10,4,0,0.21
2013-9-29,75.9,58.8,40.8,52.8,46.1,40.5,99,68,36,29.81,29.65,11,3,0,0.00
2013-9-30,77.0,62.6,49.1,56.7,51.2,46.7,94,69,39,29.67,29.46,12,4,0,0.00
2013-10-1,84.7,67.1,54.3,59.0,55.5,49.9,97,70,37,29.70,29.52,4,2,0,0.00
2013-10-2,84.2,69.1,53.6,64.6,55.7,44.4,88,65,37,29.76,29.58,10,3,0,0.00
2013-10-3,79.9,70.7,63.9,68.8,64.5,61.3,99,82,54,29.58,29.48,8,2,0,0.04
2013-10-4,74.8,67.8,61.5,71.8,66.3,61.2,99,95,83,29.62,29.46,9,3,0,1.08
2013-10-5,74.3,56.3,45.0,67.4,44.4,36.1,83,65,44,29.65,29.52,8,2,0,0.00
2013-10-6,49.5,47.0,43.2,47.9,42.1,36.2,99,84,65,29.63,29.47,8,2,0,0.07
2013-10-7,75.9,56.3,39.6,48.1,44.6,39.3,99,71,31,29.77,29.63,7,1,0,0.00
2013-10-8,77.0,60.5,43.9,50.2,46.8,43.4,99,66,34,29.82,29.71,14,4,0,0.00
2013-10-9,75.4,61.2,49.3,52.3,48.9,46.8,95,67,37,29.85,29.76,9,4,0,0.00
2013-10-10,77.7,61.3,45.3,55.4,49.9,44.2,97,69,41,29.81,29.62,10,3,0,0.00
2013-10-11,74.1,64.6,53.8,63.3,58.2,51.7,96,80,65,29.63,29.46,16,6,0,0.00
2013-10-12,68.4,56.8,40.6,63.2,41.6,34.6,90,60,30,29.99,29.53,10,2,0,0.00
2013-10-13,67.5,48.4,32.4,42.3,36.0,31.7,99,68,30,30.20,29.99,6,1,0,0.00
2013-10-14,64.2,52.4,37.4,47.1,39.0,33.3,91,63,38,30.10,29.56,12,5,0,0.01
2013-10-15,58.5,51.4,47.3,57.6,46.3,41.9,99,83,66,29.65,29.50,11,4,0,0.45
2013-10-16,50.4,46.1,36.5,44.5,42.4,36.0,98,87,75,29.74,29.66,7,2,0,0.00
2013-10-17,63.5,48.3,36.3,44.5,39.0,34.7,99,75,36,29.70,29.56,6,1,0,0.00
2013-10-18,51.8,44.3,35.2,40.2,34.2,28.2,96,70,42,29.80,29.69,6,2,0,0.00
2013-10-19,57.7,45.2,34.5,37.3,34.2,31.4,90,67,40,29.70,29.52,6,2,0,0.00
2013-10-20,63.3,48.2,37.4,45.3,38.0,32.1,83,69,45,29.67,29.44,12,2,0,0.00
2013-10-21,51.1,40.5,31.5,35.3,29.0,23.3,90,66,39,29.81,29.68,9,2,0,0.00
2013-10-22,39.0,37.3,34.7,38.7,34.7,30.4,99,90,78,29.81,29.62,6,2,0,0.09
2013-10-23,43.3,36.7,27.9,37.0,31.6,26.5,97,82,57,29.88,29.79,5,1,0,0.01
2013-10-24,45.7,36.0,28.8,31.5,28.1,22.9,98,74,50,30.11,29.88,7,2,0,0.00
2013-10-25,56.1,40.1,22.6,32.7,29.0,22.4,99,69,40,30.15,29.77,9,2,0,0.00
2013-10-26,52.5,43.3,28.2,34.4,29.8,26.2,92,61,38,29.89,29.69,11,3,0,0.00
2013-10-27,62.1,40.4,22.1,36.1,30.4,21.4,99,73,37,29.87,29.59,10,2,0,0.00
2013-10-28,53.6,42.0,31.1,39.6,34.9,29.6,97,77,58,30.03,29.71,9,4,0,0.00
2013-10-29,56.7,46.9,38.8,48.2,40.9,33.9,87,80,68,30.03,29.75,8,3,0,0.00
2013-10-30,62.8,55.5,51.1,59.4,54.6,48.5,99,97,85,29.74,29.36,10,4,0,1.17
2013-10-31,58.8,45.7,41.9,58.5,44.0,40.3,99,94,83,29.37,29.19,6,2,0,0.01
2013-11-1,55.8,46.7,40.5,42.4,40.2,37.6,93,80,51,29.60,29.24,8,2,0,0.00
2013-11-2,55.4,44.3,30.7,41.1,36.4,30.3,99,76,43,29.88,29.60,10,3,0,0.00
2013-11-3,57.0,43.5,29.5,38.2,33.6,29.3,99,72,41,29.90,29.67,16,7,0,0.00
2013-11-4,54.5,48.5,44.6,47.8,43.3,35.7,96,83,64,29.90,29.66,12,5,0,0.11
2013-11-5,56.5,47.9,42.4,56.2,46.7,40.4,99,96,85,29.92,29.50,11,4,0,0.86
2013-11-6,45.1,36.8,25.9,41.6,31.3,24.1,99,83,45,30.00,29.56,14,4,0,0.00
2013-11-7,47.5,33.9,24.8,36.1,28.6,24.3,99,83,46,30.05,29.97,7,2,0,0.00
2013-11-8,57.2,48.1,23.7,38.7,34.4,23.0,97,60,46,30.03,29.51,15,7,0,0.00
2013-11-9,56.5,47.1,36.0,40.0,35.9,29.8,82,66,47,30.04,29.56,8,3,0,0.00
2013-11-10,46.9,37.8,22.8,33.7,29.0,22.1,98,72,53,30.18,29.89,5,2,0,0.00
2013-11-11,46.4,31.7,16.7,35.2,25.2,11.8,94,77,61,30.45,29.82,17,6,0,0.00
2013-11-12,33.8,19.0,9.3,14.3,11.4,7.5,92,74,40,30.60,30.32,5,2,0,0.00
2013-11-13,50.9,33.3,18.0,25.6,18.0,12.1,82,56,36,30.32,29.77,8,4,0,0.00
2013-11-14,55.2,41.1,32.2,31.5,26.5,20.2,85,57,36,29.77,29.61,6,2,0,0.00
2013-11-15,56.8,40.2,23.0,36.9,31.6,22.3,99,74,47,29.65,29.46,8,3,0,0.00
2013-11-16,64.4,52.5,39.7,58.4,49.1,36.4,98,88,79,29.46,29.02,13,5,0,0.00
2013-11-17,53.4,45.3,39.4,49.5,42.7,36.1,99,91,71,29.67,28.99,11,3,0,0.23
2013-11-18,49.8,35.9,24.4,36.3,30.9,24.2,99,84,52,30.01,29.68,9,2,0,0.00
2013-11-19,51.4,38.1,23.5,36.6,30.8,23.3,99,77,54,30.01,29.75,12,6,0,0.00
2013-11-20,43.0,39.3,37.0,38.4,34.7,27.7,99,85,58,29.76,29.64,14,7,0,0.00
2013-11-21,38.1,31.8,25.5,37.8,31.3,25.3,99,98,95,30.17,29.75,12,5,0,0.00
2013-11-22,28.6,18.7,9.1,25.0,15.8,8.2,99,89,66,30.38,30.18,12,3,0,0.00
2013-11-23,18.7,11.1,-0.2,12.8,5.4,-2.9,94,78,60,30.58,30.32,14,4,0,0.00
2013-11-24,27.0,14.2,-0.6,14.3,6.6,-3.3,94,73,46,30.50,29.98,10,4,0,0.00
2013-11-25,39.7,27.5,16.7,28.1,22.4,14.1,99,82,60,29.97,29.81,6,2,0,0.12
2013-11-26,29.1,22.4,13.8,25.4,14.8,8.5,99,74,50,30.09,29.85,14,4,0,0.00
2013-11-27,27.7,17.8,5.2,14.9,10.1,3.2,93,73,51,30.13,29.79,9,3,0,0.00
2013-11-28,33.3,20.9,9.7,19.6,14.7,8.1,98,78,56,30.25,29.76,8,2,0,0.00
2013-11-29,36.9,22.5,5.4,25.5,17.0,3.1,95,80,61,30.27,29.96,13,4,0,0.00
2013-11-30,51.6,33.9,22.6,34.8,28.1,21.4,99,81,52,29.95,29.78,5,2,0,0.00
2013-12-1,40.8,32.9,22.6,32.3,29.1,22.1,99,86,70,29.91,29.65,4,2,0,0.00
2013-12-2,46.0,37.0,32.4,39.3,33.9,29.8,99,89,76,29.63,29.28,14,4,0,0.00
2013-12-3,40.6,36.5,32.0,40.3,36.2,31.8,99,99,99,29.39,29.27,6,2,0,0.00
2013-12-4,38.5,30.8,17.8,38.2,29.8,14.0,99,96,84,29.63,29.22,10,3,0,0.02
2013-12-5,18.9,13.0,6.6,14.3,6.4,0.6,86,75,64,30.14,29.64,12,4,0,0.00
2013-12-6,13.6,6.2,0.1,2.8,-1.2,-5.1,80,71,59,30.35,30.12,9,4,0,0.00
2013-12-7,14.9,10.4,6.8,1.8,0.0,-2.8,69,62,50,30.51,30.28,8,2,0,0.00
2013-12-8,20.5,14.9,10.2,17.0,11.0,1.5,98,85,67,30.26,29.73,8,3,0,0.00
2013-12-9,14.9,2.0,-12.1,13.5,-2.6,-14.4,96,81,57,30.02,29.79,6,2,0,0.00
2013-12-10,23.0,15.6,-0.9,16.4,8.2,-4.8,94,73,52,29.95,29.70,10,3,0,0.00
2013-12-11,18.0,4.2,-8.9,17.3,-0.9,-11.3,97,80,54,30.37,29.94,7,2,0,0.00
2013-12-12,31.3,12.8,-0.6,17.4,6.9,-4.3,96,78,56,30.22,29.85,7,2,0,0.02
2013-12-13,32.5,19.6,4.6,23.1,16.3,3.3,98,87,66,29.85,29.70,9,2,0,0.00
2013-12-14,24.8,18.5,11.5,20.3,15.5,8.4,97,88,73,29.89,29.79,10,4,0,0.00
2013-12-15,16.2,12.3,7.0,9.3,7.6,4.9,91,81,69,29.88,29.78,6,2,0,0.00
2013-12-16,25.5,18.0,11.5,22.7,15.7,8.8,97,91,87,29.83,29.69,6,2,0,0.00
2013-12-17,39.0,25.4,10.0,29.0,19.4,8.9,99,80,49,29.93,29.79,11,2,0,0.00
2013-12-18,49.5,28.9,8.4,34.1,23.0,7.0,99,81,51,29.90,29.46,9,2,0,0.00
2013-12-19,35.1,29.6,23.0,30.9,27.8,22.8,99,93,83,29.60,29.48,10,4,0,0.00
2013-12-20,26.6,23.6,20.5,26.4,23.2,19.8,99,98,97,29.63,29.53,9,4,0,0.00
2013-12-21,24.8,22.0,18.5,24.6,20.8,16.5,99,95,90,29.63,29.48,9,4,0,0.00
2013-12-22,24.8,17.5,3.6,24.6,15.4,1.1,99,91,81,30.05,29.48,13,5,0,0.00
2013-12-23,9.5,0.1,-11.0,0.5,-6.2,-15.4,89,75,58,30.28,30.05,8,3,0,0.00
2013-12-24,13.3,-2.1,-21.5,12.8,-6.9,-24.1,98,80,58,30.29,29.92,10,4,0,0.00
2013-12-25,34.0,22.9,13.5,29.2,20.6,13.0,99,91,79,29.99,29.87,8,2,0,0.00
2013-12-26,37.6,24.9,12.9,27.3,20.8,11.7,99,85,64,29.95,29.81,6,2,0,0.05
2013-12-27,47.8,27.8,7.2,32.0,21.9,6.3,99,81,52,29.97,29.78,7,2,0,0.02
2013-12-28,50.0,36.6,23.5,33.4,29.2,22.1,98,76,52,29.80,29.50,12,4,0,0.00
2013-12-29,23.5,7.4,-2.7,21.8,0.2,-10.0,93,72,51,30.06,29.68,13,6,0,0.00
2013-12-30,10.8,3.5,-5.8,8.9,-0.5,-10.8,95,83,70,30.05,29.86,9,2,0,0.00
2013-12-31,11.8,5.0,-8.3,6.0,1.3,-10.7,96,85,72,30.04,29.92,7,3,0,0.00
2014-1-1,8.8,6.3,4.6,4.8,2.4,0.5,89,84,77,30.10,29.93,10,6,0,0.00
2014-1-2,8.2,1.4,-13.0,0.5,-3.8,-15.7,90,78,65,30.20,30.05,10,4,0,0.00